Location: Althorst
(53.6379°N, 10.7715°E)
Time: 21:30:18
(UTC+00:00)

CSL-04 Debris - Pass Details

Date: 10 December 2019
Orbit: 827 x 848 km, 99.0° (Epoch: 22 January)

Event Time Altitude Azimuth Distance (km) Brightness Sun altitude
Rises 16:41:32 0° 138° (SE) 3,392 7.1 -14.3°
Reaches altitude 10° 16:43:59 10° 132° (SE) 2,458 6.3 -14.6°
Maximum altitude 16:49:05 43° 63° (ENE) 1,173 4.5 -15.3°
Drops below altitude 10° 16:54:11 10° 353° (N) 2,459 6.5 -16.1°
Sets 16:56:38 0° 347° (NNW) 3,394 7.3 -16.4°
